Time,TemperatureF,DewpointF,PressureIn,WindDirection,WindDirectionDegrees,WindSpeedMPH,WindSpeedGustMPH,Humidity,HourlyPrecipIn,Conditions,Clouds,dailyrainin,SoftwareType,DateUTC
2013-04-11 00:00:00,59.6,47.8,29.95,East,90,0.0,3.0,65,0.00,,,0.00,LWC V2.11 B50,2013-04-11 07:00:00,
2013-04-11 00:05:00,59.0,49.2,29.93,East,90,0.0,0.0,70,0.00,,,0.00,WeatherCatV1.15B25,2013-04-11 07:05:00,
2013-04-11 00:10:00,59.0,49.2,29.93,East,90,0.0,0.0,70,0.00,,,0.00,LWC V2.11 B50,2013-04-11 07:10:00,
2013-04-11 00:15:00,59.0,49.2,29.93,East,90,0.0,0.0,70,0.00,,,0.00,WeatherCatV1.15B25,2013-04-11 07:15:00,
2013-04-11 00:20:00,59.0,49.2,29.93,East,90,0.0,0.0,70,0.00,,,0.00,LWC V2.11 B50,2013-04-11 07:20:00,
2013-04-11 00:25:00,59.0,49.2,29.93,East,90,0.0,0.0,70,0.00,,,0.00,WeatherCatV1.15B25,2013-04-11 07:25:00,
2013-04-11 00:30:00,59.0,49.2,29.93,East,90,0.0,0.0,70,0.00,,,0.00,LWC V2.11 B50,2013-04-11 07:30:00,
2013-04-11 00:35:00,59.0,49.2,29.93,East,90,0.0,0.0,70,0.00,,,0.00,WeatherCatV1.15B25,2013-04-11 07:35:00,
2013-04-11 00:40:00,59.0,49.2,29.93,East,90,0.0,0.0,70,0.00,,,0.00,LWC V2.11 B50,2013-04-11 07:40:00,
2013-04-11 00:45:00,59.0,49.2,29.93,East,90,0.0,0.0,70,0.00,,,0.00,WeatherCatV1.15B25,2013-04-11 07:45:00,
2013-04-11 00:50:00,59.0,49.2,29.93,East,90,0.0,0.0,70,0.00,,,0.00,LWC V2.11 B50,2013-04-11 07:50:00,
2013-04-11 00:55:00,59.0,49.2,29.93,East,90,0.0,0.0,70,0.00,,,0.00,WeatherCatV1.15B25,2013-04-11 07:55:00,
2013-04-11 01:00:00,57.0,48.4,29.92,East,90,0.0,1.0,73,0.00,,,0.00,LWC V2.11 B50,2013-04-11 08:00:00,
2013-04-11 01:05:00,57.0,48.4,29.92,East,90,0.0,1.0,73,0.00,,,0.00,WeatherCatV1.15B25,2013-04-11 08:05:00,
2013-04-11 01:10:00,57.0,48.4,29.92,East,90,0.0,1.0,73,0.00,,,0.00,LWC V2.11 B50,2013-04-11 08:10:00,
2013-04-11 01:15:00,57.0,48.4,29.92,East,90,0.0,1.0,73,0.00,,,0.00,WeatherCatV1.15B25,2013-04-11 08:15:00,
2013-04-11 01:20:00,57.0,48.4,29.92,East,90,0.0,1.0,73,0.00,,,0.00,LWC V2.11 B50,2013-04-11 08:20:00,
2013-04-11 01:25:00,57.0,48.4,29.92,East,90,0.0,1.0,73,0.00,,,0.00,WeatherCatV1.15B25,2013-04-11 08:25:00,
2013-04-11 01:30:00,57.0,48.4,29.92,East,90,0.0,1.0,73,0.00,,,0.00,LWC V2.11 B50,2013-04-11 08:30:00,
2013-04-11 01:35:00,57.0,48.4,29.92,East,90,0.0,1.0,73,0.00,,,0.00,WeatherCatV1.15B25,2013-04-11 08:35:00,
2013-04-11 01:40:00,57.0,48.4,29.92,East,90,0.0,1.0,73,0.00,,,0.00,LWC V2.11 B50,2013-04-11 08:40:00,
2013-04-11 01:45:00,57.0,48.4,29.92,East,90,0.0,1.0,73,0.00,,,0.00,WeatherCatV1.15B25,2013-04-11 08:45:00,
2013-04-11 01:50:00,57.0,48.4,29.92,East,90,0.0,1.0,73,0.00,,,0.00,LWC V2.11 B50,2013-04-11 08:50:00,
2013-04-11 01:55:00,57.0,48.4,29.92,East,90,0.0,1.0,73,0.00,,,0.00,WeatherCatV1.15B25,2013-04-11 08:55:00,
2013-04-11 02:00:00,53.5,47.5,29.91,East,90,0.0,1.0,80,0.00,,,0.00,LWC V2.11 B50,2013-04-11 09:00:00,
2013-04-11 02:05:00,53.5,47.5,29.91,East,90,0.0,1.0,80,0.00,,,0.00,WeatherCatV1.15B25,2013-04-11 09:05:00,
2013-04-11 02:10:00,53.5,47.5,29.91,East,90,0.0,1.0,80,0.00,,,0.00,LWC V2.11 B50,2013-04-11 09:10:00,
2013-04-11 02:15:00,53.5,47.5,29.91,East,90,0.0,1.0,80,0.00,,,0.00,WeatherCatV1.15B25,2013-04-11 09:15:00,
2013-04-11 02:20:00,53.5,47.5,29.91,East,90,0.0,1.0,80,0.00,,,0.00,LWC V2.11 B50,2013-04-11 09:20:00,
2013-04-11 02:25:00,53.5,47.5,29.91,East,90,0.0,1.0,80,0.00,,,0.00,WeatherCatV1.15B25,2013-04-11 09:25:00,
2013-04-11 02:30:00,53.5,47.5,29.91,East,90,0.0,1.0,80,0.00,,,0.00,LWC V2.11 B50,2013-04-11 09:30:00,
2013-04-11 02:35:00,53.5,47.5,29.91,East,90,0.0,1.0,80,0.00,,,0.00,WeatherCatV1.15B25,2013-04-11 09:35:00,
2013-04-11 02:40:00,53.5,47.5,29.91,East,90,0.0,1.0,80,0.00,,,0.00,LWC V2.11 B50,2013-04-11 09:40:00,
2013-04-11 02:45:00,53.5,47.5,29.91,East,90,0.0,1.0,80,0.00,,,0.00,WeatherCatV1.15B25,2013-04-11 09:45:00,
2013-04-11 02:50:00,53.5,47.5,29.91,East,90,0.0,1.0,80,0.00,,,0.00,LWC V2.11 B50,2013-04-11 09:50:00,
2013-04-11 02:55:00,53.5,47.5,29.91,East,90,0.0,1.0,80,0.00,,,0.00,WeatherCatV1.15B25,2013-04-11 09:55:00,
2013-04-11 03:00:00,53.5,47.5,29.91,East,90,0.0,1.0,80,0.00,,,0.00,LWC V2.11 B50,2013-04-11 10:00:00,
2013-04-11 03:05:00,53.0,47.3,29.90,East,90,0.0,1.0,81,0.00,,,0.00,WeatherCatV1.15B25,2013-04-11 10:05:00,
2013-04-11 03:10:00,53.0,47.3,29.90,East,90,0.0,1.0,81,0.00,,,0.00,LWC V2.11 B50,2013-04-11 10:10:00,
2013-04-11 03:15:00,53.0,47.3,29.90,East,90,0.0,1.0,81,0.00,,,0.00,WeatherCatV1.15B25,2013-04-11 10:15:00,
2013-04-11 03:20:00,53.0,47.3,29.90,East,90,0.0,1.0,81,0.00,,,0.00,LWC V2.11 B50,2013-04-11 10:20:00,
2013-04-11 03:25:00,53.0,47.3,29.90,East,90,0.0,1.0,81,0.00,,,0.00,WeatherCatV1.15B25,2013-04-11 10:25:00,
2013-04-11 03:30:00,53.0,47.3,29.90,East,90,0.0,1.0,81,0.00,,,0.00,LWC V2.11 B50,2013-04-11 10:30:00,
2013-04-11 03:35:00,53.0,47.3,29.90,East,90,0.0,1.0,81,0.00,,,0.00,WeatherCatV1.15B25,2013-04-11 10:35:00,
2013-04-11 03:40:00,53.0,47.3,29.90,East,90,0.0,1.0,81,0.00,,,0.00,LWC V2.11 B50,2013-04-11 10:40:00,
2013-04-11 03:45:00,53.0,47.3,29.90,East,90,0.0,1.0,81,0.00,,,0.00,WeatherCatV1.15B25,2013-04-11 10:45:00,
2013-04-11 03:50:00,53.0,47.3,29.90,East,90,0.0,1.0,81,0.00,,,0.00,LWC V2.11 B50,2013-04-11 10:50:00,
2013-04-11 03:55:00,53.0,47.3,29.90,East,90,0.0,1.0,81,0.00,,,0.00,WeatherCatV1.15B25,2013-04-11 10:55:00,
2013-04-11 04:00:00,53.0,47.3,29.90,East,90,0.0,1.0,81,0.00,,,0.00,LWC V2.11 B50,2013-04-11 11:00:00,
2013-04-11 04:05:00,50.6,46.3,29.89,East,90,0.0,1.0,85,0.00,,,0.00,WeatherCatV1.15B25,2013-04-11 11:05:00,
2013-04-11 04:10:00,50.6,46.3,29.89,East,90,0.0,1.0,85,0.00,,,0.00,LWC V2.11 B50,2013-04-11 11:10:00,
2013-04-11 04:15:00,50.6,46.3,29.89,East,90,0.0,1.0,85,0.00,,,0.00,WeatherCatV1.15B25,2013-04-11 11:15:00,
2013-04-11 04:20:00,50.6,46.3,29.89,East,90,0.0,1.0,85,0.00,,,0.00,LWC V2.11 B50,2013-04-11 11:20:00,
2013-04-11 04:25:00,50.6,46.3,29.89,East,90,0.0,1.0,85,0.00,,,0.00,WeatherCatV1.15B25,2013-04-11 11:25:00,
2013-04-11 04:30:00,50.6,46.3,29.89,East,90,0.0,1.0,85,0.00,,,0.00,LWC V2.11 B50,2013-04-11 11:30:00,
2013-04-11 04:35:00,50.6,46.3,29.89,East,90,0.0,1.0,85,0.00,,,0.00,WeatherCatV1.15B25,2013-04-11 11:35:00,
2013-04-11 04:40:00,50.6,46.3,29.89,East,90,0.0,1.0,85,0.00,,,0.00,LWC V2.11 B50,2013-04-11 11:40:00,
2013-04-11 04:45:00,50.6,46.3,29.89,East,90,0.0,1.0,85,0.00,,,0.00,WeatherCatV1.15B25,2013-04-11 11:45:00,
2013-04-11 04:50:00,50.6,46.3,29.89,East,90,0.0,1.0,85,0.00,,,0.00,LWC V2.11 B50,2013-04-11 11:50:00,
2013-04-11 04:55:00,50.6,46.3,29.89,East,90,0.0,1.0,85,0.00,,,0.00,WeatherCatV1.15B25,2013-04-11 11:55:00,
2013-04-11 05:00:00,50.6,46.3,29.89,East,90,0.0,1.0,85,0.00,,,0.00,LWC V2.11 B50,2013-04-11 12:00:00,
2013-04-11 05:05:00,50.7,47.0,29.90,East,90,0.0,0.0,87,0.00,,,0.00,WeatherCatV1.15B25,2013-04-11 12:05:00,
2013-04-11 05:10:00,50.7,47.0,29.90,East,90,0.0,0.0,87,0.00,,,0.00,LWC V2.11 B50,2013-04-11 12:10:00,
2013-04-11 05:15:00,50.7,47.0,29.90,East,90,0.0,0.0,87,0.00,,,0.00,WeatherCatV1.15B25,2013-04-11 12:15:00,
2013-04-11 05:20:00,50.7,47.0,29.90,East,90,0.0,0.0,87,0.00,,,0.00,LWC V2.11 B50,2013-04-11 12:20:00,
2013-04-11 05:25:00,50.7,47.0,29.90,East,90,0.0,0.0,87,0.00,,,0.00,WeatherCatV1.15B25,2013-04-11 12:25:00,
2013-04-11 05:30:00,50.7,47.0,29.90,East,90,0.0,0.0,87,0.00,,,0.00,LWC V2.11 B50,2013-04-11 12:30:00,
2013-04-11 05:35:00,50.7,47.0,29.90,East,90,0.0,0.0,87,0.00,,,0.00,WeatherCatV1.15B25,2013-04-11 12:35:00,
2013-04-11 05:40:00,50.7,47.0,29.90,East,90,0.0,0.0,87,0.00,,,0.00,LWC V2.11 B50,2013-04-11 12:40:00,
2013-04-11 05:45:00,50.7,47.0,29.90,East,90,0.0,0.0,87,0.00,,,0.00,WeatherCatV1.15B25,2013-04-11 12:45:00,
2013-04-11 05:50:00,50.7,47.0,29.90,East,90,0.0,0.0,87,0.00,,,0.00,LWC V2.11 B50,2013-04-11 12:50:00,
2013-04-11 05:55:00,50.7,47.0,29.90,East,90,0.0,0.0,87,0.00,,,0.00,WeatherCatV1.15B25,2013-04-11 12:55:00,
2013-04-11 06:00:00,50.7,47.0,29.90,East,90,0.0,0.0,87,0.00,,,0.00,LWC V2.11 B50,2013-04-11 13:00:00,
2013-04-11 06:05:00,50.0,46.9,29.90,East,90,0.0,1.0,89,0.00,,,0.00,WeatherCatV1.15B25,2013-04-11 13:05:00,
2013-04-11 06:10:00,50.0,46.9,29.90,East,90,0.0,1.0,89,0.00,,,0.00,LWC V2.11 B50,2013-04-11 13:10:00,
2013-04-11 06:15:00,50.0,46.9,29.90,East,90,0.0,1.0,89,0.00,,,0.00,WeatherCatV1.15B25,2013-04-11 13:15:00,
2013-04-11 06:20:00,50.0,46.9,29.90,East,90,0.0,1.0,89,0.00,,,0.00,LWC V2.11 B50,2013-04-11 13:20:00,
2013-04-11 06:25:00,50.0,46.9,29.90,East,90,0.0,1.0,89,0.00,,,0.00,WeatherCatV1.15B25,2013-04-11 13:25:00,
2013-04-11 06:30:00,50.0,46.9,29.90,East,90,0.0,1.0,89,0.00,,,0.00,LWC V2.11 B50,2013-04-11 13:30:00,
2013-04-11 06:35:00,50.0,46.9,29.90,East,90,0.0,1.0,89,0.00,,,0.00,WeatherCatV1.15B25,2013-04-11 13:35:00,
2013-04-11 06:40:00,50.0,46.9,29.90,East,90,0.0,1.0,89,0.00,,,0.00,LWC V2.11 B50,2013-04-11 13:40:00,
2013-04-11 06:45:00,50.0,46.9,29.90,East,90,0.0,1.0,89,0.00,,,0.00,WeatherCatV1.15B25,2013-04-11 13:45:00,
2013-04-11 06:50:00,50.0,46.9,29.90,East,90,0.0,1.0,89,0.00,,,0.00,LWC V2.11 B50,2013-04-11 13:50:00,
2013-04-11 06:55:00,50.0,46.9,29.90,East,90,0.0,1.0,89,0.00,,,0.00,WeatherCatV1.15B25,2013-04-11 13:55:00,
2013-04-11 07:00:00,50.0,46.9,29.90,East,90,0.0,1.0,89,0.00,,,0.00,LWC V2.11 B50,2013-04-11 14:00:00,
2013-04-11 07:05:00,49.9,47.1,29.89,East,90,0.0,0.0,90,0.00,,,0.00,WeatherCatV1.15B25,2013-04-11 14:05:00,
2013-04-11 07:10:00,49.9,47.1,29.89,East,90,0.0,0.0,90,0.00,,,0.00,LWC V2.11 B50,2013-04-11 14:10:00,
2013-04-11 07:15:00,49.9,47.1,29.89,East,90,0.0,0.0,90,0.00,,,0.00,WeatherCatV1.15B25,2013-04-11 14:15:00,
2013-04-11 07:20:00,49.9,47.1,29.89,East,90,0.0,0.0,90,0.00,,,0.00,LWC V2.11 B50,2013-04-11 14:20:00,
2013-04-11 07:25:00,49.9,47.1,29.89,East,90,0.0,0.0,90,0.00,,,0.00,WeatherCatV1.15B25,2013-04-11 14:25:00,
2013-04-11 07:30:00,49.9,47.1,29.89,East,90,0.0,0.0,90,0.00,,,0.00,LWC V2.11 B50,2013-04-11 14:30:00,
2013-04-11 07:35:00,49.9,47.1,29.89,East,90,0.0,0.0,90,0.00,,,0.00,WeatherCatV1.15B25,2013-04-11 14:35:00,
2013-04-11 07:40:00,49.9,47.1,29.89,East,90,0.0,0.0,90,0.00,,,0.00,LWC V2.11 B50,2013-04-11 14:40:00,
2013-04-11 07:45:00,49.9,47.1,29.89,East,90,0.0,0.0,90,0.00,,,0.00,WeatherCatV1.15B25,2013-04-11 14:45:00,
2013-04-11 07:50:00,49.9,47.1,29.89,East,90,0.0,0.0,90,0.00,,,0.00,LWC V2.11 B50,2013-04-11 14:50:00,
2013-04-11 07:55:00,49.9,47.1,29.89,East,90,0.0,0.0,90,0.00,,,0.00,WeatherCatV1.15B25,2013-04-11 14:55:00,
2013-04-11 08:00:00,49.9,47.1,29.89,East,90,0.0,0.0,90,0.00,,,0.00,LWC V2.11 B50,2013-04-11 15:00:00,
2013-04-11 08:05:00,50.7,47.6,29.90,East,90,0.0,0.0,89,0.00,,,0.00,WeatherCatV1.15B25,2013-04-11 15:05:00,
2013-04-11 08:10:00,50.7,47.6,29.90,East,90,0.0,0.0,89,0.00,,,0.00,LWC V2.11 B50,2013-04-11 15:10:00,
2013-04-11 08:15:00,50.7,47.6,29.90,East,90,0.0,0.0,89,0.00,,,0.00,WeatherCatV1.15B25,2013-04-11 15:15:00,
2013-04-11 08:20:00,50.7,47.6,29.90,East,90,0.0,0.0,89,0.00,,,0.00,LWC V2.11 B50,2013-04-11 15:20:00,
2013-04-11 08:25:00,50.7,47.6,29.90,East,90,0.0,0.0,89,0.00,,,0.00,WeatherCatV1.15B25,2013-04-11 15:25:00,
2013-04-11 08:30:00,50.7,47.6,29.90,East,90,0.0,0.0,89,0.00,,,0.00,LWC V2.11 B50,2013-04-11 15:30:00,
2013-04-11 08:35:00,50.7,47.6,29.90,East,90,0.0,0.0,89,0.00,,,0.00,WeatherCatV1.15B25,2013-04-11 15:35:00,
2013-04-11 08:40:00,50.7,47.6,29.90,East,90,0.0,0.0,89,0.00,,,0.00,LWC V2.11 B50,2013-04-11 15:40:00,
2013-04-11 08:45:00,50.7,47.6,29.90,East,90,0.0,0.0,89,0.00,,,0.00,WeatherCatV1.15B25,2013-04-11 15:45:00,
2013-04-11 08:50:00,50.7,47.6,29.90,East,90,0.0,0.0,89,0.00,,,0.00,LWC V2.11 B50,2013-04-11 15:50:00,
2013-04-11 08:55:00,50.7,47.6,29.90,East,90,0.0,0.0,89,0.00,,,0.00,WeatherCatV1.15B25,2013-04-11 15:55:00,
2013-04-11 09:00:00,50.7,47.6,29.90,East,90,0.0,0.0,89,0.00,,,0.00,LWC V2.11 B50,2013-04-11 16:00:00,
2013-04-11 09:05:00,56.5,49.7,29.91,NW,315,0.0,5.0,78,0.00,,,0.00,WeatherCatV1.15B25,2013-04-11 16:05:00,
2013-04-11 09:10:00,56.5,49.7,29.91,NW,315,0.0,5.0,78,0.00,,,0.00,LWC V2.11 B50,2013-04-11 16:10:00,
2013-04-11 09:15:00,56.5,49.7,29.91,NW,315,0.0,5.0,78,0.00,,,0.00,WeatherCatV1.15B25,2013-04-11 16:15:00,
2013-04-11 09:20:00,56.5,49.7,29.91,NW,315,0.0,5.0,78,0.00,,,0.00,LWC V2.11 B50,2013-04-11 16:20:00,
2013-04-11 09:25:00,56.5,49.7,29.91,NW,315,0.0,5.0,78,0.00,,,0.00,WeatherCatV1.15B25,2013-04-11 16:25:00,
2013-04-11 09:30:00,56.5,49.7,29.91,NW,315,0.0,5.0,78,0.00,,,0.00,LWC V2.11 B50,2013-04-11 16:30:00,
2013-04-11 09:35:00,56.5,49.7,29.91,NW,315,0.0,5.0,78,0.00,,,0.00,WeatherCatV1.15B25,2013-04-11 16:35:00,
2013-04-11 09:40:00,56.5,49.7,29.91,NW,315,0.0,5.0,78,0.00,,,0.00,LWC V2.11 B50,2013-04-11 16:40:00,
2013-04-11 09:45:00,56.5,49.7,29.91,NW,315,0.0,5.0,78,0.00,,,0.00,WeatherCatV1.15B25,2013-04-11 16:45:00,
2013-04-11 09:50:00,56.5,49.7,29.91,NW,315,0.0,5.0,78,0.00,,,0.00,LWC V2.11 B50,2013-04-11 16:50:00,
2013-04-11 09:55:00,56.5,49.7,29.91,NW,315,0.0,5.0,78,0.00,,,0.00,WeatherCatV1.15B25,2013-04-11 16:55:00,
2013-04-11 10:00:00,56.5,49.7,29.91,NW,315,0.0,5.0,78,0.00,,,0.00,LWC V2.11 B50,2013-04-11 17:00:00,
2013-04-11 10:05:00,60.7,47.2,29.91,West,270,1.0,4.0,61,0.00,,,0.00,WeatherCatV1.15B25,2013-04-11 17:05:00,
2013-04-11 10:10:00,60.7,47.2,29.91,West,270,1.0,4.0,61,0.00,,,0.00,LWC V2.11 B50,2013-04-11 17:10:00,
2013-04-11 10:15:00,60.7,47.2,29.91,West,270,1.0,4.0,61,0.00,,,0.00,WeatherCatV1.15B25,2013-04-11 17:15:00,
2013-04-11 10:20:00,60.7,47.2,29.91,West,270,1.0,4.0,61,0.00,,,0.00,LWC V2.11 B50,2013-04-11 17:20:00,
2013-04-11 10:25:00,60.7,47.2,29.91,West,270,1.0,4.0,61,0.00,,,0.00,WeatherCatV1.15B25,2013-04-11 17:25:00,
2013-04-11 10:30:00,60.7,47.2,29.91,West,270,1.0,4.0,61,0.00,,,0.00,LWC V2.11 B50,2013-04-11 17:30:00,
2013-04-11 10:35:00,60.7,47.2,29.91,West,270,1.0,4.0,61,0.00,,,0.00,WeatherCatV1.15B25,2013-04-11 17:35:00,
2013-04-11 10:40:00,60.7,47.2,29.91,West,270,1.0,4.0,61,0.00,,,0.00,LWC V2.11 B50,2013-04-11 17:40:00,
2013-04-11 10:45:00,60.7,47.2,29.91,West,270,1.0,4.0,61,0.00,,,0.00,WeatherCatV1.15B25,2013-04-11 17:45:00,
2013-04-11 10:50:00,60.7,47.2,29.91,West,270,1.0,4.0,61,0.00,,,0.00,LWC V2.11 B50,2013-04-11 17:50:00,
2013-04-11 10:55:00,60.7,47.2,29.91,West,270,1.0,4.0,61,0.00,,,0.00,WeatherCatV1.15B25,2013-04-11 17:55:00,
2013-04-11 11:00:00,60.7,47.2,29.91,West,270,1.0,4.0,61,0.00,,,0.00,LWC V2.11 B50,2013-04-11 18:00:00,
2013-04-11 11:05:00,64.1,48.5,29.90,West,270,1.0,5.0,57,0.00,,,0.00,WeatherCatV1.15B25,2013-04-11 18:05:00,
2013-04-11 11:10:00,64.1,48.5,29.90,West,270,1.0,5.0,57,0.00,,,0.00,LWC V2.11 B50,2013-04-11 18:10:00,
2013-04-11 11:15:00,64.1,48.5,29.90,West,270,1.0,5.0,57,0.00,,,0.00,WeatherCatV1.15B25,2013-04-11 18:15:00,
2013-04-11 11:20:00,64.1,48.5,29.90,West,270,1.0,5.0,57,0.00,,,0.00,LWC V2.11 B50,2013-04-11 18:20:00,
2013-04-11 11:25:00,64.1,48.5,29.90,West,270,1.0,5.0,57,0.00,,,0.00,WeatherCatV1.15B25,2013-04-11 18:25:00,
2013-04-11 11:30:00,64.1,48.5,29.90,West,270,1.0,5.0,57,0.00,,,0.00,LWC V2.11 B50,2013-04-11 18:30:00,
2013-04-11 11:35:00,64.1,48.5,29.90,West,270,1.0,5.0,57,0.00,,,0.00,WeatherCatV1.15B25,2013-04-11 18:35:00,
2013-04-11 11:40:00,64.1,48.5,29.90,West,270,1.0,5.0,57,0.00,,,0.00,LWC V2.11 B50,2013-04-11 18:40:00,
2013-04-11 11:45:00,64.1,48.5,29.90,West,270,1.0,5.0,57,0.00,,,0.00,WeatherCatV1.15B25,2013-04-11 18:45:00,
2013-04-11 11:50:00,64.1,48.5,29.90,West,270,1.0,5.0,57,0.00,,,0.00,LWC V2.11 B50,2013-04-11 18:50:00,
2013-04-11 11:55:00,64.1,48.5,29.90,West,270,1.0,5.0,57,0.00,,,0.00,WeatherCatV1.15B25,2013-04-11 18:55:00,
2013-04-11 12:00:00,64.1,48.5,29.90,West,270,1.0,5.0,57,0.00,,,0.00,LWC V2.11 B50,2013-04-11 19:00:00,
2013-04-11 12:05:00,64.5,48.5,29.89,West,270,3.0,7.0,56,0.00,,,0.00,WeatherCatV1.15B25,2013-04-11 19:05:00,
2013-04-11 12:10:00,64.5,48.5,29.89,West,270,3.0,7.0,56,0.00,,,0.00,LWC V2.11 B50,2013-04-11 19:10:00,
2013-04-11 12:15:00,64.5,48.5,29.89,West,270,3.0,7.0,56,0.00,,,0.00,WeatherCatV1.15B25,2013-04-11 19:15:00,
2013-04-11 12:20:00,64.5,48.5,29.89,West,270,3.0,7.0,56,0.00,,,0.00,LWC V2.11 B50,2013-04-11 19:20:00,
2013-04-11 12:25:00,64.5,48.5,29.89,West,270,3.0,7.0,56,0.00,,,0.00,WeatherCatV1.15B25,2013-04-11 19:25:00,
2013-04-11 12:30:00,64.5,48.5,29.89,West,270,3.0,7.0,56,0.00,,,0.00,LWC V2.11 B50,2013-04-11 19:30:00,
2013-04-11 12:35:00,64.5,48.5,29.89,West,270,3.0,7.0,56,0.00,,,0.00,WeatherCatV1.15B25,2013-04-11 19:35:00,
2013-04-11 12:40:00,64.5,48.5,29.89,West,270,3.0,7.0,56,0.00,,,0.00,LWC V2.11 B50,2013-04-11 19:40:00,
2013-04-11 12:45:00,64.5,48.5,29.89,West,270,3.0,7.0,56,0.00,,,0.00,WeatherCatV1.15B25,2013-04-11 19:45:00,
2013-04-11 12:50:00,64.5,48.5,29.89,West,270,3.0,7.0,56,0.00,,,0.00,LWC V2.11 B50,2013-04-11 19:50:00,
2013-04-11 12:55:00,64.5,48.5,29.89,West,270,3.0,7.0,56,0.00,,,0.00,WeatherCatV1.15B25,2013-04-11 19:55:00,
2013-04-11 13:00:00,64.5,48.5,29.89,West,270,3.0,7.0,56,0.00,,,0.00,LWC V2.11 B50,2013-04-11 20:00:00,
2013-04-11 13:05:00,67.3,45.8,29.87,West,270,3.0,10.0,46,0.00,,,0.00,WeatherCatV1.15B25,2013-04-11 20:05:00,
2013-04-11 13:10:00,67.3,45.8,29.87,West,270,3.0,10.0,46,0.00,,,0.00,LWC V2.11 B50,2013-04-11 20:10:00,
2013-04-11 13:15:00,67.3,45.8,29.87,West,270,3.0,10.0,46,0.00,,,0.00,WeatherCatV1.15B25,2013-04-11 20:15:00,
2013-04-11 13:20:00,67.3,45.8,29.87,West,270,3.0,10.0,46,0.00,,,0.00,LWC V2.11 B50,2013-04-11 20:20:00,
2013-04-11 13:25:00,67.3,45.8,29.87,West,270,3.0,10.0,46,0.00,,,0.00,WeatherCatV1.15B25,2013-04-11 20:25:00,
2013-04-11 13:30:00,67.3,45.8,29.87,West,270,3.0,10.0,46,0.00,,,0.00,LWC V2.11 B50,2013-04-11 20:30:00,
2013-04-11 13:35:00,67.3,45.8,29.87,West,270,3.0,10.0,46,0.00,,,0.00,WeatherCatV1.15B25,2013-04-11 20:35:00,
2013-04-11 13:40:00,67.3,45.8,29.87,West,270,3.0,10.0,46,0.00,,,0.00,LWC V2.11 B50,2013-04-11 20:40:00,
2013-04-11 13:45:00,67.3,45.8,29.87,West,270,3.0,10.0,46,0.00,,,0.00,WeatherCatV1.15B25,2013-04-11 20:45:00,
2013-04-11 13:50:00,67.3,45.8,29.87,West,270,3.0,10.0,46,0.00,,,0.00,LWC V2.11 B50,2013-04-11 20:50:00,
2013-04-11 13:55:00,67.3,45.8,29.87,West,270,3.0,10.0,46,0.00,,,0.00,WeatherCatV1.15B25,2013-04-11 20:55:00,
2013-04-11 14:00:00,67.3,45.8,29.87,West,270,3.0,10.0,46,0.00,,,0.00,LWC V2.11 B50,2013-04-11 21:00:00,
2013-04-11 14:05:00,69.1,37.2,29.85,West,270,3.0,7.0,31,0.00,,,0.00,WeatherCatV1.15B25,2013-04-11 21:05:00,
2013-04-11 14:10:00,69.1,37.2,29.85,West,270,3.0,7.0,31,0.00,,,0.00,LWC V2.11 B50,2013-04-11 21:10:00,
2013-04-11 14:15:00,69.1,37.2,29.85,West,270,3.0,7.0,31,0.00,,,0.00,WeatherCatV1.15B25,2013-04-11 21:15:00,
2013-04-11 14:20:00,69.1,37.2,29.85,West,270,3.0,7.0,31,0.00,,,0.00,LWC V2.11 B50,2013-04-11 21:20:00,
2013-04-11 14:25:00,69.1,37.2,29.85,West,270,3.0,7.0,31,0.00,,,0.00,WeatherCatV1.15B25,2013-04-11 21:25:00,
2013-04-11 14:30:00,69.1,37.2,29.85,West,270,3.0,7.0,31,0.00,,,0.00,LWC V2.11 B50,2013-04-11 21:30:00,
2013-04-11 14:35:00,69.1,37.2,29.85,West,270,3.0,7.0,31,0.00,,,0.00,WeatherCatV1.15B25,2013-04-11 21:35:00,
2013-04-11 14:40:00,69.1,37.2,29.85,West,270,3.0,7.0,31,0.00,,,0.00,LWC V2.11 B50,2013-04-11 21:40:00,
2013-04-11 14:45:00,69.1,37.2,29.85,West,270,3.0,7.0,31,0.00,,,0.00,WeatherCatV1.15B25,2013-04-11 21:45:00,
2013-04-11 14:50:00,69.1,37.2,29.85,West,270,3.0,7.0,31,0.00,,,0.00,LWC V2.11 B50,2013-04-11 21:50:00,
2013-04-11 14:55:00,69.1,37.2,29.85,West,270,3.0,7.0,31,0.00,,,0.00,WeatherCatV1.15B25,2013-04-11 21:55:00,
2013-04-11 15:00:00,69.1,37.2,29.85,West,270,3.0,7.0,31,0.00,,,0.00,LWC V2.11 B50,2013-04-11 22:00:00,
2013-04-11 15:05:00,68.4,34.9,29.84,West,270,2.0,7.0,29,0.00,,,0.00,WeatherCatV1.15B25,2013-04-11 22:05:00,
2013-04-11 15:10:00,68.4,34.9,29.84,West,270,2.0,7.0,29,0.00,,,0.00,LWC V2.11 B50,2013-04-11 22:10:00,
2013-04-11 15:15:00,68.4,34.9,29.84,West,270,2.0,7.0,29,0.00,,,0.00,WeatherCatV1.15B25,2013-04-11 22:15:00,
2013-04-11 15:20:00,68.4,34.9,29.84,West,270,2.0,7.0,29,0.00,,,0.00,LWC V2.11 B50,2013-04-11 22:20:00,
2013-04-11 15:25:00,68.4,34.9,29.84,West,270,2.0,7.0,29,0.00,,,0.00,WeatherCatV1.15B25,2013-04-11 22:25:00,
2013-04-11 15:30:00,68.4,34.9,29.84,West,270,2.0,7.0,29,0.00,,,0.00,LWC V2.11 B50,2013-04-11 22:30:00,
2013-04-11 15:35:00,68.4,34.9,29.84,West,270,2.0,7.0,29,0.00,,,0.00,WeatherCatV1.15B25,2013-04-11 22:35:00,
2013-04-11 15:40:00,68.4,34.9,29.84,West,270,2.0,7.0,29,0.00,,,0.00,LWC V2.11 B50,2013-04-11 22:40:00,
2013-04-11 15:45:00,68.4,34.9,29.84,West,270,2.0,7.0,29,0.00,,,0.00,WeatherCatV1.15B25,2013-04-11 22:45:00,
2013-04-11 15:50:00,68.4,34.9,29.84,West,270,2.0,7.0,29,0.00,,,0.00,LWC V2.11 B50,2013-04-11 22:50:00,
2013-04-11 15:55:00,68.4,34.9,29.84,West,270,2.0,7.0,29,0.00,,,0.00,WeatherCatV1.15B25,2013-04-11 22:55:00,
2013-04-11 16:00:00,68.4,34.9,29.84,West,270,2.0,7.0,29,0.00,,,0.00,LWC V2.11 B50,2013-04-11 23:00:00,
2013-04-11 16:05:00,69.4,39.8,29.81,West,270,3.0,8.0,34,0.00,,,0.00,WeatherCatV1.15B25,2013-04-11 23:05:00,
2013-04-11 16:10:00,69.4,39.8,29.81,West,270,3.0,8.0,34,0.00,,,0.00,LWC V2.11 B50,2013-04-11 23:10:00,
2013-04-11 16:15:00,69.4,39.8,29.81,West,270,3.0,8.0,34,0.00,,,0.00,WeatherCatV1.15B25,2013-04-11 23:15:00,
2013-04-11 16:20:00,69.4,39.8,29.81,West,270,3.0,8.0,34,0.00,,,0.00,LWC V2.11 B50,2013-04-11 23:20:00,
2013-04-11 16:25:00,69.4,39.8,29.81,West,270,3.0,8.0,34,0.00,,,0.00,WeatherCatV1.15B25,2013-04-11 23:25:00,
2013-04-11 16:30:00,69.4,39.8,29.81,West,270,3.0,8.0,34,0.00,,,0.00,LWC V2.11 B50,2013-04-11 23:30:00,
2013-04-11 16:35:00,69.4,39.8,29.81,West,270,3.0,8.0,34,0.00,,,0.00,WeatherCatV1.15B25,2013-04-11 23:35:00,
2013-04-11 16:40:00,69.4,39.8,29.81,West,270,3.0,8.0,34,0.00,,,0.00,LWC V2.11 B50,2013-04-11 23:40:00,
2013-04-11 16:45:00,69.4,39.8,29.81,West,270,3.0,8.0,34,0.00,,,0.00,WeatherCatV1.15B25,2013-04-11 23:45:00,
2013-04-11 16:50:00,69.4,39.8,29.81,West,270,3.0,8.0,34,0.00,,,0.00,LWC V2.11 B50,2013-04-11 23:50:00,
2013-04-11 16:55:00,69.4,39.8,29.81,West,270,3.0,8.0,34,0.00,,,0.00,WeatherCatV1.15B25,2013-04-11 23:55:00,
2013-04-11 17:00:00,69.4,39.8,29.81,West,270,3.0,8.0,34,0.00,,,0.00,LWC V2.11 B50,2013-04-12 00:00:00,
2013-04-11 17:05:00,69.1,38.8,29.79,West,270,2.0,7.0,33,0.00,,,0.00,WeatherCatV1.15B25,2013-04-12 00:05:00,
2013-04-11 17:10:00,69.1,38.8,29.79,West,270,2.0,7.0,33,0.00,,,0.00,WeatherCatV1.15B25,2013-04-12 00:10:00,
2013-04-11 17:15:00,69.1,38.8,29.79,West,270,2.0,7.0,33,0.00,,,0.00,WeatherCatV1.15B25,2013-04-12 00:15:00,
2013-04-11 17:18:00,68.5,38.3,29.79,NW,319,2.0,4.0,33,0.00,,,0.00,LWC V2.11 B50,2013-04-12 00:18:00,
2013-04-11 17:20:00,69.1,38.8,29.79,West,270,2.0,7.0,33,0.00,,,0.00,WeatherCatV1.15B25,2013-04-12 00:20:00,
2013-04-11 17:23:00,68.3,38.1,29.79,West,267,3.0,4.0,33,0.00,,,0.00,LWC V2.11 B50,2013-04-12 00:23:00,
2013-04-11 17:25:00,69.1,38.8,29.79,West,270,2.0,7.0,33,0.00,,,0.00,WeatherCatV1.15B25,2013-04-12 00:25:00,
2013-04-11 17:28:00,68.4,38.2,29.79,West,279,3.0,3.0,33,0.00,,,0.00,LWC V2.11 B50,2013-04-12 00:28:00,
2013-04-11 17:30:00,69.1,38.8,29.79,West,270,2.0,7.0,33,0.00,,,0.00,WeatherCatV1.15B25,2013-04-12 00:30:00,
2013-04-11 17:35:00,69.1,38.8,29.79,West,270,2.0,7.0,33,0.00,,,0.00,WeatherCatV1.15B25,2013-04-12 00:35:00,
2013-04-11 17:39:00,68.4,40.4,29.79,West,270,3.0,4.0,36,0.00,,,0.00,LWC V2.11 B50,2013-04-12 00:39:00,
2013-04-11 17:40:00,69.1,38.8,29.79,West,270,2.0,7.0,33,0.00,,,0.00,WeatherCatV1.15B25,2013-04-12 00:40:00,
2013-04-11 17:44:00,68.7,39.2,29.79,West,270,2.0,3.0,34,0.00,,,0.00,LWC V2.11 B50,2013-04-12 00:44:00,
2013-04-11 17:45:00,69.1,38.8,29.79,West,270,2.0,7.0,33,0.00,,,0.00,WeatherCatV1.15B25,2013-04-12 00:45:00,
2013-04-11 17:49:00,68.6,38.3,29.79,West,271,1.0,4.0,33,0.00,,,0.00,LWC V2.11 B50,2013-04-12 00:49:00,
2013-04-11 17:50:00,69.1,38.8,29.79,West,270,2.0,7.0,33,0.00,,,0.00,WeatherCatV1.15B25,2013-04-12 00:50:00,
2013-04-11 17:54:00,68.4,38.2,29.79,West,268,2.0,3.0,33,0.00,,,0.00,LWC V2.11 B50,2013-04-12 00:54:00,
2013-04-11 17:55:00,69.1,38.8,29.79,West,270,2.0,7.0,33,0.00,,,0.00,WeatherCatV1.15B25,2013-04-12 00:55:00,
2013-04-11 17:59:00,68.2,38.0,29.79,WNW,293,3.0,3.0,33,0.00,,,0.00,LWC V2.11 B50,2013-04-12 00:59:00,
2013-04-11 18:00:00,68.2,38.0,29.79,West,270,2.0,6.0,33,0.00,,,0.00,WeatherCatV1.15B25,2013-04-12 01:00:00,
2013-04-11 18:04:00,68.0,37.8,29.79,NW,304,0.0,2.0,33,0.00,,,0.00,LWC V2.11 B50,2013-04-12 01:04:00,
2013-04-11 18:05:00,68.2,38.0,29.79,West,270,2.0,6.0,33,0.00,,,0.00,WeatherCatV1.15B25,2013-04-12 01:05:00,
2013-04-11 18:09:00,68.0,37.8,29.79,West,281,2.0,2.0,33,0.00,,,0.00,LWC V2.11 B50,2013-04-12 01:09:00,
2013-04-11 18:10:00,68.0,37.8,29.79,WNW,282,1.0,4.0,33,0.00,,,0.00,LWC V2.11 B50,2013-04-12 01:10:00,
2013-04-11 18:14:00,67.7,38.3,29.79,WSW,257,4.0,4.0,34,0.00,,,0.00,LWC V2.11 B50,2013-04-12 01:14:00,
2013-04-11 18:15:00,68.2,38.0,29.79,West,270,2.0,6.0,33,0.00,,,0.00,WeatherCatV1.15B25,2013-04-12 01:15:00,
2013-04-11 18:20:00,67.5,38.1,29.79,WNW,285,2.0,5.0,34,0.00,,,0.00,LWC V2.11 B50,2013-04-12 01:20:00,
2013-04-11 18:25:00,68.2,38.0,29.79,West,270,2.0,6.0,33,0.00,,,0.00,WeatherCatV1.15B25,2013-04-12 01:25:00,
2013-04-11 18:30:00,67.1,37.0,29.79,West,277,3.0,5.0,33,0.00,,,0.00,LWC V2.11 B50,2013-04-12 01:30:00,
2013-04-11 18:35:00,68.2,38.0,29.79,West,270,2.0,6.0,33,0.00,,,0.00,WeatherCatV1.15B25,2013-04-12 01:35:00,
2013-04-11 18:40:00,66.6,38.1,29.79,West,278,2.0,5.0,35,0.00,,,0.00,LWC V2.11 B50,2013-04-12 01:40:00,
2013-04-11 18:45:00,68.2,38.0,29.79,West,270,2.0,6.0,33,0.00,,,0.00,WeatherCatV1.15B25,2013-04-12 01:45:00,
2013-04-11 18:50:00,66.2,37.0,29.79,WNW,294,1.0,5.0,34,0.00,,,0.00,LWC V2.11 B50,2013-04-12 01:50:00,
2013-04-11 18:55:00,68.2,38.0,29.79,West,270,2.0,6.0,33,0.00,,,0.00,WeatherCatV1.15B25,2013-04-12 01:55:00,
2013-04-11 19:00:00,65.7,38.0,29.78,West,270,2.0,5.0,36,0.00,,,0.00,WeatherCatV1.15B25,2013-04-12 02:00:00,
2013-04-11 19:05:00,65.7,38.0,29.78,West,270,2.0,5.0,36,0.00,,,0.00,WeatherCatV1.15B25,2013-04-12 02:05:00,
2013-04-11 19:09:00,65.5,37.8,29.78,West,270,0.0,1.0,36,0.00,,,0.00,LWC V2.11 B50,2013-04-12 02:09:00,
2013-04-11 19:10:00,65.7,38.0,29.78,West,270,2.0,5.0,36,0.00,,,0.00,WeatherCatV1.15B25,2013-04-12 02:10:00,
2013-04-11 19:14:00,65.2,38.3,29.78,West,270,0.0,0.0,37,0.00,,,0.00,LWC V2.11 B50,2013-04-12 02:14:00,
2013-04-11 19:15:00,65.7,38.0,29.78,West,270,2.0,5.0,36,0.00,,,0.00,WeatherCatV1.15B25,2013-04-12 02:15:00,
2013-04-11 19:19:00,64.9,38.7,29.78,West,270,0.0,0.0,38,0.00,,,0.00,LWC V2.11 B50,2013-04-12 02:19:00,
2013-04-11 19:20:00,65.7,38.0,29.78,West,270,2.0,5.0,36,0.00,,,0.00,WeatherCatV1.15B25,2013-04-12 02:20:00,
2013-04-11 19:24:00,64.5,40.9,29.77,West,270,0.0,0.0,42,0.00,,,0.00,LWC V2.11 B50,2013-04-12 02:24:00,
2013-04-11 19:25:00,65.7,38.0,29.78,West,270,2.0,5.0,36,0.00,,,0.00,WeatherCatV1.15B25,2013-04-12 02:25:00,
2013-04-11 19:29:00,64.0,41.6,29.77,West,270,0.0,0.0,44,0.00,,,0.00,LWC V2.11 B50,2013-04-12 02:29:00,
2013-04-11 19:30:00,65.7,38.0,29.78,West,270,2.0,5.0,36,0.00,,,0.00,WeatherCatV1.15B25,2013-04-12 02:30:00,
2013-04-11 19:34:00,63.2,41.5,29.77,West,270,0.0,0.0,45,0.00,,,0.00,LWC V2.11 B50,2013-04-12 02:34:00,
2013-04-11 19:35:00,65.7,38.0,29.78,West,270,2.0,5.0,36,0.00,,,0.00,WeatherCatV1.15B25,2013-04-12 02:35:00,
2013-04-11 19:39:00,62.2,41.7,29.77,East,88,0.0,0.0,47,0.00,,,0.00,LWC V2.11 B50,2013-04-12 02:39:00,
2013-04-11 19:40:00,65.7,38.0,29.78,West,270,2.0,5.0,36,0.00,,,0.00,WeatherCatV1.15B25,2013-04-12 02:40:00,
2013-04-11 19:44:00,61.6,40.6,29.77,East,88,0.0,0.0,46,0.00,,,0.00,LWC V2.11 B50,2013-04-12 02:44:00,
2013-04-11 19:45:00,65.7,38.0,29.78,West,270,2.0,5.0,36,0.00,,,0.00,WeatherCatV1.15B25,2013-04-12 02:45:00,
2013-04-11 19:49:00,61.2,41.3,29.78,East,86,0.0,0.0,48,0.00,,,0.00,LWC V2.11 B50,2013-04-12 02:49:00,
2013-04-11 19:50:00,65.7,38.0,29.78,West,270,2.0,5.0,36,0.00,,,0.00,WeatherCatV1.15B25,2013-04-12 02:50:00,
2013-04-11 19:54:00,60.9,41.1,29.78,East,86,0.0,0.0,48,0.00,,,0.00,LWC V2.11 B50,2013-04-12 02:54:00,
2013-04-11 19:55:00,65.7,38.0,29.78,West,270,2.0,5.0,36,0.00,,,0.00,WeatherCatV1.15B25,2013-04-12 02:55:00,
2013-04-11 19:59:00,60.8,39.9,29.78,East,86,0.0,0.0,46,0.00,,,0.00,LWC V2.11 B50,2013-04-12 02:59:00,
2013-04-11 20:00:00,60.8,39.9,29.78,West,270,0.0,2.0,46,0.00,,,0.00,WeatherCatV1.15B25,2013-04-12 03:00:00,
2013-04-11 20:04:00,61.0,39.5,29.79,North,352,0.0,0.0,45,0.00,,,0.00,LWC V2.11 B50,2013-04-12 03:04:00,
2013-04-11 20:05:00,60.8,39.9,29.78,West,270,0.0,2.0,46,0.00,,,0.00,WeatherCatV1.15B25,2013-04-12 03:05:00,
2013-04-11 20:09:00,61.0,39.5,29.79,North,353,0.0,0.0,45,0.00,,,0.00,LWC V2.11 B50,2013-04-12 03:09:00,
2013-04-11 20:10:00,60.8,39.9,29.78,West,270,0.0,2.0,46,0.00,,,0.00,WeatherCatV1.15B25,2013-04-12 03:10:00,
2013-04-11 20:14:00,60.9,39.4,29.78,North,353,0.0,0.0,45,0.00,,,0.00,LWC V2.11 B50,2013-04-12 03:14:00,
2013-04-11 20:15:00,60.8,39.9,29.78,West,270,0.0,2.0,46,0.00,,,0.00,WeatherCatV1.15B25,2013-04-12 03:15:00,
2013-04-11 20:19:00,60.6,40.3,29.78,NNE,12,0.0,0.0,47,0.00,,,0.00,LWC V2.11 B50,2013-04-12 03:19:00,
2013-04-11 20:20:00,60.8,39.9,29.78,West,270,0.0,2.0,46,0.00,,,0.00,WeatherCatV1.15B25,2013-04-12 03:20:00,
2013-04-11 20:24:00,60.1,41.4,29.78,North,11,0.0,0.0,50,0.00,,,0.00,LWC V2.11 B50,2013-04-12 03:24:00,
2013-04-11 20:25:00,60.8,39.9,29.78,West,270,0.0,2.0,46,0.00,,,0.00,WeatherCatV1.15B25,2013-04-12 03:25:00,
2013-04-11 20:29:00,59.7,42.0,29.79,North,11,0.0,0.0,52,0.00,,,0.00,LWC V2.11 B50,2013-04-12 03:29:00,
2013-04-11 20:30:00,60.8,39.9,29.78,West,270,0.0,2.0,46,0.00,,,0.00,WeatherCatV1.15B25,2013-04-12 03:30:00,
2013-04-11 20:34:00,59.1,42.0,29.79,NNE,12,0.0,0.0,53,0.00,,,0.00,LWC V2.11 B50,2013-04-12 03:34:00,
2013-04-11 20:35:00,60.8,39.9,29.78,West,270,0.0,2.0,46,0.00,,,0.00,WeatherCatV1.15B25,2013-04-12 03:35:00,
2013-04-11 20:39:00,58.6,42.0,29.79,NNE,12,0.0,0.0,54,0.00,,,0.00,LWC V2.11 B50,2013-04-12 03:39:00,
2013-04-11 20:40:00,60.8,39.9,29.78,West,270,0.0,2.0,46,0.00,,,0.00,WeatherCatV1.15B25,2013-04-12 03:40:00,
2013-04-11 20:44:00,58.2,42.1,29.79,NNE,22,0.0,0.0,55,0.00,,,0.00,LWC V2.11 B50,2013-04-12 03:44:00,
2013-04-11 20:45:00,60.8,39.9,29.78,West,270,0.0,2.0,46,0.00,,,0.00,WeatherCatV1.15B25,2013-04-12 03:45:00,
2013-04-11 20:49:00,57.8,41.7,29.78,ENE,70,0.0,0.0,55,0.00,,,0.00,LWC V2.11 B50,2013-04-12 03:49:00,
2013-04-11 20:50:00,60.8,39.9,29.78,West,270,0.0,2.0,46,0.00,,,0.00,WeatherCatV1.15B25,2013-04-12 03:50:00,
2013-04-11 20:54:00,57.4,41.8,29.79,ENE,70,0.0,0.0,56,0.00,,,0.00,LWC V2.11 B50,2013-04-12 03:54:00,
2013-04-11 20:55:00,60.8,39.9,29.78,West,270,0.0,2.0,46,0.00,,,0.00,WeatherCatV1.15B25,2013-04-12 03:55:00,
2013-04-11 20:59:00,57.1,41.6,29.79,ENE,77,0.0,0.0,56,0.00,,,0.00,LWC V2.11 B50,2013-04-12 03:59:00,
2013-04-11 21:00:00,57.1,41.6,29.79,ENE,77,0.0,0.0,56,0.00,,,0.00,LWC V2.11 B50,2013-04-12 04:00:00,
2013-04-11 21:01:00,57.0,41.5,29.79,ENE,77,0.0,0.0,56,0.00,,,0.00,LWC V2.11 B50,2013-04-12 04:01:00,
2013-04-11 21:05:00,57.1,41.6,29.79,North,0,0.0,1.0,56,0.00,,,0.00,WeatherCatV1.15B25,2013-04-12 04:05:00,
2013-04-11 21:06:00,57.0,41.0,29.79,East,81,0.0,0.0,55,0.00,,,0.00,LWC V2.11 B50,2013-04-12 04:06:00,
2013-04-11 21:10:00,57.1,41.6,29.79,North,0,0.0,1.0,56,0.00,,,0.00,WeatherCatV1.15B25,2013-04-12 04:10:00,
2013-04-11 21:11:00,57.1,42.0,29.80,East,79,0.0,0.0,57,0.00,,,0.00,LWC V2.11 B50,2013-04-12 04:11:00,
2013-04-11 21:15:00,57.1,41.6,29.79,North,0,0.0,1.0,56,0.00,,,0.00,WeatherCatV1.15B25,2013-04-12 04:15:00,
2013-04-11 21:16:00,56.8,43.1,29.80,East,79,0.0,0.0,60,0.00,,,0.00,LWC V2.11 B50,2013-04-12 04:16:00,
2013-04-11 21:20:00,57.1,41.6,29.79,North,0,0.0,1.0,56,0.00,,,0.00,WeatherCatV1.15B25,2013-04-12 04:20:00,
2013-04-11 21:21:00,55.8,42.6,29.80,NE,37,0.0,0.0,61,0.00,,,0.00,LWC V2.11 B50,2013-04-12 04:21:00,
2013-04-11 21:25:00,57.1,41.6,29.79,North,0,0.0,1.0,56,0.00,,,0.00,WeatherCatV1.15B25,2013-04-12 04:25:00,
2013-04-11 21:26:00,55.1,42.7,29.80,NE,37,0.0,0.0,63,0.00,,,0.00,LWC V2.11 B50,2013-04-12 04:26:00,
2013-04-11 21:30:00,57.1,41.6,29.79,North,0,0.0,1.0,56,0.00,,,0.00,WeatherCatV1.15B25,2013-04-12 04:30:00,
2013-04-11 21:31:00,55.1,42.7,29.80,NE,37,0.0,0.0,63,0.00,,,0.00,LWC V2.11 B50,2013-04-12 04:31:00,
2013-04-11 21:35:00,57.1,41.6,29.79,North,0,0.0,1.0,56,0.00,,,0.00,WeatherCatV1.15B25,2013-04-12 04:35:00,
2013-04-11 21:36:00,55.2,42.4,29.80,NE,39,0.0,0.0,62,0.00,,,0.00,LWC V2.11 B50,2013-04-12 04:36:00,
2013-04-11 21:40:00,57.1,41.6,29.79,North,0,0.0,1.0,56,0.00,,,0.00,WeatherCatV1.15B25,2013-04-12 04:40:00,
2013-04-11 21:41:00,55.1,42.7,29.80,NE,39,0.0,0.0,63,0.00,,,0.00,LWC V2.11 B50,2013-04-12 04:41:00,
2013-04-11 21:45:00,57.1,41.6,29.79,North,0,0.0,1.0,56,0.00,,,0.00,WeatherCatV1.15B25,2013-04-12 04:45:00,
2013-04-11 21:46:00,54.7,42.8,29.80,NE,39,0.0,0.0,64,0.00,,,0.00,LWC V2.11 B50,2013-04-12 04:46:00,
2013-04-11 21:50:00,57.1,41.6,29.79,North,0,0.0,1.0,56,0.00,,,0.00,WeatherCatV1.15B25,2013-04-12 04:50:00,
2013-04-11 21:51:00,53.9,42.4,29.80,NE,39,0.0,0.0,65,0.00,,,0.00,LWC V2.11 B50,2013-04-12 04:51:00,
2013-04-11 21:55:00,57.1,41.6,29.79,North,0,0.0,1.0,56,0.00,,,0.00,WeatherCatV1.15B25,2013-04-12 04:55:00,
2013-04-11 21:56:00,53.4,42.7,29.79,NE,39,0.0,0.0,67,0.00,,,0.00,LWC V2.11 B50,2013-04-12 04:56:00,
2013-04-11 22:00:00,53.3,43.0,29.79,NE,39,0.0,0.0,68,0.00,,,0.00,LWC V2.11 B50,2013-04-12 05:00:00,
2013-04-11 22:01:00,53.3,43.0,29.79,NE,39,0.0,0.0,68,0.00,,,0.00,LWC V2.11 B50,2013-04-12 05:01:00,
2013-04-11 22:05:00,53.3,43.0,29.79,North,0,0.0,0.0,68,0.00,,,0.00,WeatherCatV1.15B25,2013-04-12 05:05:00,
2013-04-11 22:10:00,53.3,43.0,29.79,North,0,0.0,0.0,68,0.00,,,0.00,LWC V2.11 B50,2013-04-12 05:10:00,
2013-04-11 22:15:00,53.3,43.0,29.79,North,0,0.0,0.0,68,0.00,,,0.00,WeatherCatV1.15B25,2013-04-12 05:15:00,
2013-04-11 22:20:00,53.3,43.0,29.79,North,0,0.0,0.0,68,0.00,,,0.00,LWC V2.11 B50,2013-04-12 05:20:00,
2013-04-11 22:25:00,53.3,43.0,29.79,North,0,0.0,0.0,68,0.00,,,0.00,WeatherCatV1.15B25,2013-04-12 05:25:00,
2013-04-11 22:30:00,53.3,43.0,29.79,North,0,0.0,0.0,68,0.00,,,0.00,LWC V2.11 B50,2013-04-12 05:30:00,
2013-04-11 22:35:00,53.3,43.0,29.79,North,0,0.0,0.0,68,0.00,,,0.00,WeatherCatV1.15B25,2013-04-12 05:35:00,
2013-04-11 22:40:00,53.3,43.0,29.79,North,0,0.0,0.0,68,0.00,,,0.00,LWC V2.11 B50,2013-04-12 05:40:00,
2013-04-11 22:45:00,53.3,43.0,29.79,North,0,0.0,0.0,68,0.00,,,0.00,WeatherCatV1.15B25,2013-04-12 05:45:00,
2013-04-11 22:50:00,53.3,43.0,29.79,North,0,0.0,0.0,68,0.00,,,0.00,LWC V2.11 B50,2013-04-12 05:50:00,
2013-04-11 22:55:00,53.3,43.0,29.79,North,0,0.0,0.0,68,0.00,,,0.00,WeatherCatV1.15B25,2013-04-12 05:55:00,
2013-04-11 23:00:00,52.9,42.6,29.78,North,0,0.0,0.0,68,0.00,,,0.00,LWC V2.11 B50,2013-04-12 06:00:00,
2013-04-11 23:05:00,52.9,42.6,29.78,North,0,0.0,0.0,68,0.00,,,0.00,WeatherCatV1.15B25,2013-04-12 06:05:00,
2013-04-11 23:10:00,52.9,42.6,29.78,North,0,0.0,0.0,68,0.00,,,0.00,LWC V2.11 B50,2013-04-12 06:10:00,
2013-04-11 23:15:00,52.9,42.6,29.78,North,0,0.0,0.0,68,0.00,,,0.00,WeatherCatV1.15B25,2013-04-12 06:15:00,
2013-04-11 23:20:00,52.9,42.6,29.78,North,0,0.0,0.0,68,0.00,,,0.00,LWC V2.11 B50,2013-04-12 06:20:00,
2013-04-11 23:25:00,52.9,42.6,29.78,North,0,0.0,0.0,68,0.00,,,0.00,WeatherCatV1.15B25,2013-04-12 06:25:00,
2013-04-11 23:30:00,52.9,42.6,29.78,North,0,0.0,0.0,68,0.00,,,0.00,LWC V2.11 B50,2013-04-12 06:30:00,
2013-04-11 23:35:00,52.9,42.6,29.78,North,0,0.0,0.0,68,0.00,,,0.00,WeatherCatV1.15B25,2013-04-12 06:35:00,
2013-04-11 23:40:00,52.9,42.6,29.78,North,0,0.0,0.0,68,0.00,,,0.00,LWC V2.11 B50,2013-04-12 06:40:00,
2013-04-11 23:45:00,52.9,42.6,29.78,North,0,0.0,0.0,68,0.00,,,0.00,WeatherCatV1.15B25,2013-04-12 06:45:00,
2013-04-11 23:50:00,52.9,42.6,29.78,North,0,0.0,0.0,68,0.00,,,0.00,LWC V2.11 B50,2013-04-12 06:50:00,
2013-04-11 23:55:00,52.9,42.6,29.78,North,0,0.0,0.0,68,0.00,,,0.00,WeatherCatV1.15B25,2013-04-12 06:55:00,